Home   Weather   Linares   Past weeks

Flag for Spain Past Weather in Linares, Spain — Yesterday and Last 2 Weeks

59 °F

Thundershowers. Broken clouds.

Feels Like: 57 °F
Forecast: 57 / 78 °F
Wind: 13 mph from West

Location: Granada / Aeropuerto

Current Time: Oct 24, 2016 at 12:47:43 PM

Latest Report: Oct 24, 2016 at 12:00 PM

Visibility: N/A

Pressure: 29.89 "Hg

Humidity: 94%

Dew Point: 57 °F

Location of LinaresLocation

Past Weather in Linares — Graph


Linares Temperature Yesterday

Maximum temperature yesterday: 73 °F (at 4:00 PM)
Minimum temperature yesterday: 59 °F (at 5:00 AM)
Average temperature yesterday: 66 °F

High & Low Weather Summary for the Past Weeks

High84 °F (Oct 9, 4:00 PM)100% (Oct 12, 4:00 PM)30.30 "Hg (Oct 12, 4:00 PM)
Low43 °F (Oct 15, 7:00 AM)13% (Oct 11, 4:30 PM)29.62 "Hg (Oct 13, 6:30 AM)
Average62 °F73%29.98 "Hg
* Reported Oct 9 11:00 AM — Oct 24 11:30 AM, Linares, Weather by CustomWeather, © 2016

Note: Actual official high and low records may vary slightly from our data, if they occured in-between our weather recording intervals... More about our weather records


Linares Weather History for the Previous 24 Hours

Scroll right to see more
Time TempWeatherWind HumidityBarometerVisibility
11:30 AM
Mon, Oct 24
59 °FLight rain. Broken clouds.7 mph94%29.89 "HgN/A
11:00 AM59 °FLight rain. Broken clouds.No wind94%29.89 "HgN/A
10:30 AM55 °FBroken clouds.3 mph100%29.89 "HgN/A
10:00 AM55 °FScattered clouds.2 mph100%29.86 "HgN/A
9:30 AM55 °FBroken clouds.No wind94%29.86 "HgN/A
9:00 AM55 °FLight rain. Broken clouds.1 mph100%29.83 "HgN/A
8:30 AM54 °FPassing clouds.No wind100%29.83 "HgN/A
8:00 AM54 °FPassing clouds.2 mph100%29.83 "HgN/A
7:30 AM54 °FPassing clouds.No wind100%29.83 "HgN/A
7:00 AM54 °FPassing clouds.1 mph100%29.83 "HgN/A
6:30 AM54 °FPassing clouds.2 mph100%29.83 "HgN/A
6:00 AM54 °FPassing clouds.5 mph100%29.83 "HgN/A
5:30 AM54 °FPassing clouds.5 mph100%29.83 "HgN/A
5:00 AM54 °FPassing clouds.No wind100%29.83 "HgN/A
4:30 AM54 °FLight rain. Partly cloudy.1 mph100%29.83 "Hg6 mi
4:00 AM54 °FPassing clouds.1 mph100%29.83 "HgN/A
3:30 AM54 °FLight rain. Fog.3 mph100%29.86 "Hg2 mi
3:00 AM55 °FThundershowers. Passing clouds.8 mph94%29.83 "HgN/A
2:30 AM55 °FPassing clouds.2 mph94%29.83 "HgN/A
2:00 AM55 °FPassing clouds.8 mph94%29.83 "HgN/A
1:30 AM57 °FLight rain. Partly cloudy.9 mph94%29.83 "HgN/A
1:00 AM57 °FPassing clouds.8 mph94%29.86 "HgN/A
12:30 AM59 °FPassing clouds.10 mph94%29.86 "HgN/A
12:00 AM59 °FLight rain. Partly cloudy.12 mph94%29.86 "Hg6 mi
11:30 PM
Sun, Oct 23
63 °FPassing clouds.2 mph77%29.83 "HgN/A
11:00 PM64 °FPassing clouds.10 mph73%29.83 "HgN/A
10:30 PM66 °FPassing clouds.8 mph64%29.83 "HgN/A
10:00 PM66 °FPassing clouds.6 mph64%29.80 "HgN/A
9:30 PM66 °FPassing clouds.8 mph60%29.80 "HgN/A
9:00 PM66 °FPassing clouds.6 mph64%29.80 "HgN/A
8:30 PM64 °FPassing clouds.5 mph68%29.80 "HgN/A
8:00 PM66 °FPassing clouds.3 mph68%29.80 "HgN/A
7:30 PM68 °FPassing clouds.10 mph56%29.80 "HgN/A
7:00 PM68 °FScattered clouds.14 mph60%29.80 "HgN/A
6:30 PM70 °FScattered clouds.15 mph53%29.77 "HgN/A
6:00 PM70 °FScattered clouds.16 mph53%29.77 "HgN/A
5:30 PM70 °FScattered clouds.17 mph50%29.77 "HgN/A
5:00 PM70 °FScattered clouds.24 mph50%29.74 "HgN/A
4:30 PM70 °FScattered clouds.22 mph53%29.77 "HgN/A
4:00 PM73 °FScattered clouds.17 mph50%29.77 "HgN/A
3:30 PM72 °FScattered clouds.12 mph50%29.77 "HgN/A
3:00 PM72 °FScattered clouds.13 mph50%29.80 "HgN/A
2:30 PM72 °FPartly sunny.14 mph50%29.80 "HgN/A
2:00 PM70 °FPartly sunny.14 mph57%29.80 "HgN/A
1:30 PM70 °FPartly sunny.15 mph53%29.83 "HgN/A
1:00 PM72 °FScattered clouds.15 mph50%29.83 "HgN/A
12:30 PM70 °FScattered clouds.14 mph53%29.83 "HgN/A
12:00 PM70 °FScattered clouds.22 mph53%29.83 "HgN/A
Weather by CustomWeather, © 2016

See weather overviewHow to use our weather pages